Laramie, WY

2:33 AM MDT on June 29, 2017 (GMT -0600)
Laramie Regional

Weather History for KLAR - February, 2012

Change the Weather History Date:

Thursday, February 23, 2012

  Actual Average Record
Temperature  
Mean Temperature 21 °F 25 °F  
Max Temperature 32 °F 37 °F 56 °F (1958)
Min Temperature 9 °F 14 °F -15 °F (2010)
Degree Days  
Heating Degree Days 44 40  
Month to date heating degree days 1047 965  
Since 1 July heating degree days 5907 5980  
Cooling Degree Days 0 0  
Month to date cooling degree days 0 0  
Year to date cooling degree days 0 0  
Moisture  
Dew Point 14 °F    
Average Humidity 83    
Maximum Humidity 100    
Minimum Humidity 66    
Precipitation  
Precipitation 0.07 in 0.01 in 0.33 in (1948)
Month to date precipitation 0.34 0.27  
Year to date precipitation 0.50 0.54  
Sea Level Pressure  
Sea Level Pressure 29.72 in    
Wind  
Wind Speed 21 mph (NW)    
Max Wind Speed 46 mph    
Max Gust Speed 69 mph    
Visibility 4 miles    
Events Fog , Snow    
T = Trace of Precipitation, MM = Missing Value Source: NWS Daily Summary

Daily Weather History Graph

Daily Weather History Graph

Search for Another Location

Airport or City:

Trip Planner

Search our weather history database for the weather conditions in past years. The results will help you decide how hot, cold, wet, or windy it might be!

Date:

Astronomy

Feb. 23, 2012 Rise Set
Actual Time 6:46 AM MST 5:45 PM MST
Civil Twilight 6:18 AM MST 6:13 PM MST
Nautical Twilight 5:46 AM MST 6:45 PM MST
Astronomical Twilight 5:14 AM MST 7:17 PM MST
Moon 7:12 AM MST (2/23) 7:56 PM MST (2/23)
Length of Visible Light 11h 54m
Length of Day
10h 58m
Waxing Crescent, 3% of the Moon is Illuminated
Feb 23
Waxing Crescent
Feb 29
First Quarter
Mar 8
Full
Mar 14
Last Quarter
Mar 22
New

Hourly Weather History & Observations

Time (MST) Temp. Windchill Dew Point Humidity Pressure Visibility Wind Dir Wind Speed Gust Speed Precip Events Conditions
12:08 AM 28.4 °F 12.0 °F 24.8 °F 86% 29.46 in 0.8 mi NW 33.4 mph 58.7 mph 0.00 in Snow Light Snow
12:18 AM 26.6 °F 8.7 °F 24.8 °F 93% 29.47 in 0.2 mi NNW 38.0 mph 47.2 mph 0.01 in Fog , Snow Snow
12:31 AM 26.6 °F 9.3 °F 24.8 °F 93% 29.48 in 0.2 mi NNW 34.5 mph 47.2 mph 0.02 in Fog , Snow Snow
12:53 AM 25.0 °F 8.9 °F 24.1 °F 96% 29.47 in 0.2 mi NW 26.5 mph 36.8 mph 0.03 in Fog , Snow Heavy Snow
1:10 AM 24.8 °F 10.0 °F 23.0 °F 93% 29.54 in 0.2 mi North 21.9 mph 29.9 mph 0.01 in Fog , Snow Heavy Snow
1:23 AM 23.0 °F 6.9 °F 21.2 °F 93% 29.54 in 0.2 mi North 24.2 mph - 0.01 in Fog Light Freezing Fog
1:50 AM 23.0 °F 8.7 °F 21.2 °F 93% 29.56 in 0.5 mi NNW 18.4 mph - 0.02 in Fog Light Freezing Fog
1:51 AM 23.0 °F 9.2 °F 21.0 °F 92% 29.54 in 0.5 mi NNW 17.3 mph - 0.02 in Fog Light Freezing Fog
2:00 AM 21.2 °F 4.2 °F 21.2 °F 100% 29.56 in 1.0 mi NNW 25.3 mph 29.9 mph N/A   Mist
2:09 AM 21.2 °F 4.9 °F 21.2 °F 100% 29.56 in 0.5 mi NNW 23.0 mph - N/A Fog Light Freezing Fog
2:40 AM 21.2 °F 4.2 °F 19.4 °F 93% 29.55 in 0.8 mi NW 25.3 mph - 0.01 in   Mist
2:49 AM 21.2 °F 4.2 °F 19.4 °F 93% 29.55 in 1.0 mi NW 25.3 mph - 0.01 in   Mist
2:50 AM 21.2 °F 3.5 °F 19.4 °F 93% 29.55 in 1.0 mi NW 27.6 mph 33.4 mph 0.01 in   Overcast
2:53 AM 21.0 °F 3.6 °F 19.9 °F 96% 29.54 in 1.0 mi NW 26.5 mph 33.4 mph 0.01 in   Overcast
3:07 AM 19.4 °F 1.8 °F 19.4 °F 100% 29.57 in 0.8 mi NW 25.3 mph 38.0 mph N/A   Overcast
3:13 AM 21.2 °F 3.9 °F 19.4 °F 93% 29.58 in 1.0 mi NW 26.5 mph - N/A   Overcast
3:19 AM 19.4 °F 0.2 °F 17.6 °F 93% 29.59 in 0.5 mi NW 31.1 mph 41.4 mph 0.00 in Fog , Snow Light Snow
3:53 AM 19.0 °F -0.5 °F 17.1 °F 92% 29.59 in 0.5 mi NW 32.2 mph 36.8 mph 0.00 in Fog , Snow Light Snow
4:12 AM 19.4 °F 0.8 °F 17.6 °F 93% 29.59 in 0.5 mi NW 28.8 mph 40.3 mph 0.00 in Fog , Snow Light Snow
4:33 AM 19.4 °F 2.1 °F 17.6 °F 93% 29.61 in 0.5 mi NNW 24.2 mph 32.2 mph 0.00 in Fog , Snow Snow
4:41 AM 17.6 °F -0.3 °F 15.8 °F 93% 29.61 in 0.2 mi North 24.2 mph 33.4 mph 0.01 in Fog , Snow Heavy Snow
4:53 AM 17.1 °F -0.3 °F 15.1 °F 92% 29.62 in 0.5 mi NNW 21.9 mph 29.9 mph 0.01 in Fog , Snow Snow
5:16 AM 15.8 °F -1.1 °F 14.0 °F 93% 29.62 in 0.8 mi NNW 19.6 mph 28.8 mph 0.00 in Snow Light Snow
5:32 AM 15.8 °F -1.1 °F 14.0 °F 93% 29.63 in 1.0 mi NNW 19.6 mph - 0.00 in Snow Light Snow
5:53 AM 15.1 °F -1.1 °F 12.9 °F 91% 29.69 in 1.2 mi NNW 17.3 mph - 0.00 in Snow Light Snow
6:14 AM 15.8 °F -1.1 °F 12.2 °F 86% 29.65 in 0.8 mi NNW 19.6 mph 26.5 mph 0.00 in Snow Light Snow
6:41 AM 15.8 °F -0.6 °F 12.2 °F 86% 29.66 in 1.0 mi NNW 18.4 mph - N/A Snow Light Snow
6:53 AM 15.1 °F -0.1 °F 12.9 °F 91% 29.69 in 2.5 mi NNW 15.0 mph - 0.00 in Snow Light Snow
7:03 AM 15.8 °F 0.9 °F 12.2 °F 86% 29.66 in 1.2 mi NNW 15.0 mph - 0.00 in Snow Light Snow
7:21 AM 15.8 °F 2.1 °F 12.2 °F 86% 29.68 in 3.0 mi NNW 12.7 mph - 0.00 in Snow Light Snow
7:38 AM 14.0 °F 1.2 °F 12.2 °F 93% 29.69 in 9.0 mi NNW 10.4 mph - 0.00 in   Mostly Cloudy
7:53 AM 12.9 °F -4.4 °F 10.9 °F 92% 29.74 in 10.0 mi NW 18.4 mph 25.3 mph 0.00 in   Mostly Cloudy
8:53 AM 16.0 °F -3.5 °F 12.0 °F 84% 29.75 in 3.0 mi NW 27.6 mph - 0.00 in   Clear
9:01 AM 17.6 °F -0.6 °F 12.2 °F 79% 29.73 in 2.5 mi NW 25.3 mph - 0.00 in   Scattered Clouds
9:16 AM 17.6 °F -0.3 °F 12.2 °F 79% 29.73 in 1.5 mi NW 24.2 mph 33.4 mph 0.00 in Snow Light Snow
9:22 AM 17.6 °F 0.9 °F 12.2 °F 79% 29.74 in 3.0 mi NW 20.7 mph - 0.00 in Snow Light Snow
9:53 AM 18.0 °F 0.6 °F 12.9 °F 81% 29.77 in 6.0 mi NW 23.0 mph 31.1 mph 0.00 in   Mostly Cloudy
10:27 AM 19.4 °F 1.4 °F 12.2 °F 74% 29.76 in 2.5 mi NW 26.5 mph 34.5 mph 0.00 in Snow Blowing Snow
10:35 AM 17.6 °F -1.3 °F 12.2 °F 79% 29.77 in 3.0 mi NW 27.6 mph - 0.00 in Snow Blowing Snow
10:53 AM 19.0 °F 0.3 °F 14.0 °F 81% 29.80 in 3.0 mi NW 28.8 mph 34.5 mph 0.00 in Snow Blowing Snow
11:53 AM 18.0 °F 0.9 °F 12.0 °F 78% 29.86 in 10.0 mi NW 21.9 mph - 0.00 in   Partly Cloudy
12:53 PM 18.0 °F 1.3 °F 10.9 °F 74% 29.89 in 10.0 mi NW 20.7 mph - N/A   Partly Cloudy
1:53 PM 18.0 °F -1.1 °F 12.0 °F 78% 29.91 in 4.0 mi NW 28.8 mph 33.4 mph 0.00 in Snow Blowing Snow
2:53 PM 18.0 °F -1.1 °F 12.0 °F 78% 29.95 in 5.0 mi NW 28.8 mph - 0.00 in   Haze
3:53 PM 17.1 °F -0.3 °F 10.0 °F 74% 29.99 in 10.0 mi NW 21.9 mph - N/A   Mostly Cloudy
4:53 PM 16.0 °F -1.3 °F 8.1 °F 71% 30.02 in 10.0 mi NW 20.7 mph - N/A   Mostly Cloudy
5:53 PM 12.0 °F -2.7 °F 3.9 °F 70% 30.09 in 10.0 mi NW 12.7 mph - N/A   Clear
6:53 PM 10.0 °F -6.5 °F 1.0 °F 67% 30.12 in 10.0 mi WNW 15.0 mph - N/A   Clear
7:53 PM 9.0 °F -8.5 °F 1.0 °F 70% 30.14 in 10.0 mi WNW 16.1 mph - N/A   Clear
8:53 PM 10.9 °F -5.9 °F 1.0 °F 64% 30.11 in 10.0 mi WNW 16.1 mph - N/A   Clear
9:53 PM 10.0 °F -7.1 °F 1.0 °F 67% 30.12 in 10.0 mi West 16.1 mph - N/A   Clear
10:53 PM 12.0 °F -6.5 °F 3.0 °F 67% 30.11 in 10.0 mi West 20.7 mph - N/A   Clear
11:53 PM 9.0 °F -7.9 °F 1.9 °F 73% 30.14 in 10.0 mi West 15.0 mph - N/A   Clear